Radiation Dose at Monitoring Post of Fukushima Daini Nuclear Power Station
Date,Time,MP-1(microSv/h),MP-2(microSv/h),MP-3(microSv/h),MP-4(microSv/h),MP-5(microSv/h),MP-6(microSv/h),MP-7(microSv/h),Wind Direction,Wind Velocity(m/s),Rain
2024/06/07,00:00,0.145,0.129,0.208,0.196,0.207,0.114,0.074,north-northwest,5.0,No
2024/06/07,00:10,0.145,0.130,0.208,0.195,0.206,0.114,0.075,north-northwest,5.6,No
2024/06/07,00:20,0.145,0.129,0.208,0.194,0.205,0.113,0.074,north-northwest,5.5,No
2024/06/07,00:30,0.146,0.129,0.208,0.195,0.205,0.115,0.074,north-northwest,5.9,No
2024/06/07,00:40,0.145,0.129,0.208,0.195,0.207,0.114,0.075,north-northwest,5.7,No
2024/06/07,00:50,0.146,0.129,0.207,0.196,0.205,0.113,0.074,northwest,5.8,No
2024/06/07,01:00,0.145,0.128,0.209,0.196,0.206,0.115,0.073,north-northwest,6.0,No
2024/06/07,01:10,0.145,0.130,0.207,0.195,0.207,0.113,0.074,north-northwest,5.1,No
2024/06/07,01:20,0.145,0.129,0.209,0.196,0.205,0.115,0.073,north-northwest,5.0,No
2024/06/07,01:30,0.146,0.130,0.207,0.195,0.205,0.115,0.074,north-northwest,5.6,No
2024/06/07,01:40,0.145,0.130,0.210,0.195,0.205,0.114,0.074,north-northwest,5.5,No
2024/06/07,01:50,0.145,0.130,0.207,0.195,0.205,0.113,0.074,north-northwest,5.5,No
2024/06/07,02:00,0.145,0.129,0.208,0.196,0.205,0.114,0.073,north-northwest,5.5,No
2024/06/07,02:10,0.145,0.129,0.207,0.195,0.204,0.113,0.074,north-northwest,5.1,No
2024/06/07,02:20,0.146,0.129,0.208,0.196,0.205,0.114,0.073,north-northwest,4.8,No
2024/06/07,02:30,0.145,0.129,0.207,0.194,0.206,0.113,0.074,north-northwest,4.5,No
2024/06/07,02:40,0.146,0.129,0.207,0.195,0.204,0.114,0.073,north-northwest,3.8,No
2024/06/07,02:50,0.144,0.130,0.207,0.195,0.208,0.114,0.074,north-northwest,4.0,No
2024/06/07,03:00,0.146,0.130,0.208,0.196,0.204,0.113,0.073,north-northwest,4.7,No
2024/06/07,03:10,0.144,0.129,0.208,0.195,0.207,0.113,0.074,north-northwest,3.1,No
2024/06/07,03:20,0.146,0.130,0.208,0.195,0.204,0.114,0.073,north-northwest,3.5,No
2024/06/07,03:30,0.145,0.129,0.207,0.195,0.206,0.113,0.073,north-northwest,3.7,No
2024/06/07,03:40,0.146,0.129,0.208,0.195,0.203,0.114,0.073,north-northwest,4.2,No
2024/06/07,03:50,0.145,0.129,0.207,0.195,0.207,0.114,0.074,north-northwest,3.2,No
2024/06/07,04:00,0.146,0.129,0.207,0.194,0.205,0.114,0.074,north-northwest,2.7,No
2024/06/07,04:10,0.145,0.128,0.207,0.195,0.206,0.114,0.075,north-northwest,3.4,No
2024/06/07,04:20,0.145,0.129,0.207,0.194,0.204,0.113,0.074,north-northwest,3.3,No
2024/06/07,04:30,0.144,0.129,0.208,0.195,0.205,0.115,0.074,north-northwest,3.4,No
2024/06/07,04:40,0.145,0.130,0.206,0.194,0.203,0.113,0.073,north,3.2,No
2024/06/07,04:50,0.145,0.130,0.207,0.196,0.205,0.114,0.073,north-northwest,3.6,No
2024/06/07,05:00,0.146,0.128,0.206,0.193,0.205,0.113,0.074,north-northwest,3.2,No
2024/06/07,05:10,0.144,0.129,0.206,0.195,0.205,0.113,0.074,north-northwest,3.0,No
2024/06/07,05:20,0.145,0.128,0.207,0.193,0.206,0.114,0.074,north-northwest,2.9,No
2024/06/07,05:30,0.144,0.129,0.207,0.195,0.204,0.113,0.074,north-northwest,2.0,No
2024/06/07,05:40,0.144,0.128,0.207,0.194,0.205,0.114,0.073,north-northwest,2.6,No
2024/06/07,05:50,0.146,0.130,0.207,0.194,0.204,0.113,0.074,north-northwest,3.7,No
2024/06/07,06:00,0.143,0.129,0.208,0.194,0.206,0.114,0.074,north-northwest,4.1,No
2024/06/07,06:10,0.146,0.128,0.207,0.195,0.204,0.113,0.072,north-northwest,4.0,No
2024/06/07,06:20,0.145,0.128,0.207,0.194,0.205,0.114,0.074,north-northwest,3.8,No
2024/06/07,06:30,0.145,0.129,0.206,0.194,0.203,0.114,0.073,north-northwest,3.9,No
2024/06/07,06:40,0.145,0.127,0.208,0.195,0.205,0.113,0.074,north-northwest,3.4,No
2024/06/07,06:50,0.145,0.129,0.207,0.193,0.205,0.114,0.073,north-northwest,3.4,No
2024/06/07,07:00,0.145,0.129,0.208,0.195,0.205,0.113,0.074,north-northwest,3.4,No
2024/06/07,07:10,0.144,0.129,0.206,0.194,0.205,0.113,0.073,north,2.9,No
2024/06/07,07:20,0.145,0.128,0.207,0.196,0.203,0.113,0.074,north-northwest,2.5,No
2024/06/07,07:30,0.144,0.128,0.207,0.193,0.207,0.113,0.073,north-northwest,2.6,No
2024/06/07,07:40,0.145,0.128,0.207,0.194,0.203,0.113,0.073,northwest,3.2,No
2024/06/07,07:50,0.145,0.127,0.207,0.195,0.204,0.113,0.073,northwest,2.9,No
2024/06/07,08:00,0.144,0.128,0.205,0.193,0.206,0.114,0.074,north-northwest,2.3,No
2024/06/07,08:10,0.146,0.129,0.208,0.195,0.203,0.113,0.073,north-northwest,1.8,No
2024/06/07,08:20,0.145,0.129,0.207,0.194,0.207,0.114,0.074,north,1.8,No
2024/06/07,08:30,0.145,0.129,0.205,0.194,0.204,0.113,0.073,north-northwest,1.6,No
2024/06/07,08:40,0.144,0.127,0.208,0.195,0.203,0.113,0.073,northwest,1.1,No
2024/06/07,08:50,0.144,0.129,0.206,0.194,0.207,0.113,0.074,north-northeast,1.4,No
2024/06/07,09:00,0.145,0.129,0.205,0.193,0.203,0.114,0.073,north-northeast,1.8,No
2024/06/07,09:10,0.144,0.128,0.208,0.194,0.203,0.113,0.073,north-northeast,2.0,No
2024/06/07,09:20,0.144,0.129,0.207,0.194,0.205,0.113,0.074,north-northeast,1.5,No
2024/06/07,09:30,0.145,0.128,0.206,0.194,0.205,0.113,0.072,north-northeast,2.0,No
2024/06/07,09:40,0.146,0.128,0.208,0.195,0.202,0.113,0.073,north,1.9,No
2024/06/07,09:50,0.144,0.129,0.208,0.194,0.206,0.113,0.074,north-northeast,2.2,No
2024/06/07,10:00,0.145,0.129,0.206,0.193,0.205,0.112,0.073,northeast,2.7,No
2024/06/07,10:10,0.145,0.129,0.207,0.196,0.202,0.113,0.073,northeast,2.5,No
2024/06/07,10:20,0.144,0.129,0.209,0.194,0.203,0.114,0.074,northeast,2.7,No
2024/06/07,10:30,0.146,0.128,0.206,0.193,0.206,0.113,0.074,northeast,1.6,No
2024/06/07,10:40,0.145,0.129,0.208,0.196,0.203,0.113,0.073,east-northeast,2.1,No
2024/06/07,10:50,0.144,0.129,0.208,0.196,0.202,0.113,0.074,northeast,1.7,No
2024/06/07,11:00,0.145,0.128,0.206,0.194,0.206,0.113,0.073,northeast,1.1,No
2024/06/07,11:10,0.145,0.130,0.208,0.196,0.204,0.114,0.073,east-northeast,1.8,No
2024/06/07,11:20,0.144,0.128,0.208,0.196,0.204,0.113,0.073,northeast,1.4,No
2024/06/07,11:30,0.145,0.129,0.206,0.193,0.206,0.114,0.073,east-northeast,2.1,No
2024/06/07,11:40,0.145,0.129,0.208,0.197,0.205,0.114,0.073,east-northeast,1.0,No
2024/06/07,11:50,0.144,0.128,0.208,0.195,0.203,0.114,0.075,east-northeast,0.6,No
2024/06/07,12:00,0.145,0.129,0.206,0.193,0.205,0.114,0.073,northeast,0.6,No
2024/06/07,12:10,0.145,0.128,0.208,0.195,0.205,0.113,0.073,northeast,1.8,No
2024/06/07,12:20,0.144,0.128,0.207,0.196,0.202,0.113,0.075,northeast,1.9,No
2024/06/07,12:30,0.145,0.129,0.206,0.194,0.204,0.113,0.073,east-northeast,2.7,No
2024/06/07,12:40,0.145,0.128,0.207,0.194,0.206,0.112,0.073,east-northeast,3.0,No
2024/06/07,12:50,0.143,0.128,0.207,0.197,0.203,0.113,0.073,east-northeast,3.5,No
2024/06/07,13:00,0.145,0.129,0.205,0.194,0.203,0.114,0.073,east-northeast,3.8,No
2024/06/07,13:10,0.145,0.129,0.209,0.194,0.206,0.113,0.073,east-northeast,2.5,No
2024/06/07,13:20,0.144,0.129,0.207,0.197,0.204,0.114,0.074,northeast,2.0,No
2024/06/07,13:30,0.146,0.128,0.205,0.195,0.202,0.114,0.073,northeast,2.1,No
2024/06/07,13:40,0.145,0.127,0.208,0.193,0.205,0.114,0.074,northeast,1.2,No
2024/06/07,13:50,0.143,0.129,0.207,0.197,0.205,0.114,0.073,east-northeast,1.7,No
2024/06/07,14:00,0.145,0.130,0.207,0.195,0.203,0.113,0.073,east-southeast,0.9,No
2024/06/07,14:10,0.145,0.128,0.207,0.194,0.204,0.113,0.074,east-northeast,1.0,No
2024/06/07,14:20,0.144,0.129,0.209,0.197,0.206,0.114,0.073,east-northeast,1.7,No
2024/06/07,14:30,0.145,0.130,0.208,0.195,0.205,0.113,0.073,east-northeast,1.2,No
2024/06/07,14:40,0.145,0.128,0.209,0.194,0.205,0.113,0.073,east-northeast,1.7,No
2024/06/07,14:50,0.143,0.130,0.207,0.197,0.205,0.113,0.073,east-southeast,1.1,No
2024/06/07,15:00,0.147,0.128,0.206,0.196,0.203,0.113,0.073,southeast,1.2,No
2024/06/07,15:10,0.145,0.128,0.209,0.194,0.204,0.113,0.073,east,1.1,No
2024/06/07,15:20,0.144,0.129,0.207,0.196,0.205,0.113,0.073,east,1.3,No
2024/06/07,15:30,0.144,0.127,0.206,0.196,0.205,0.113,0.073,southeast,1.3,No
2024/06/07,15:40,0.147,0.129,0.208,0.194,0.203,0.113,0.074,southeast,1.6,No
2024/06/07,15:50,0.145,0.130,0.208,0.195,0.202,0.114,0.073,south-southeast,1.1,No
2024/06/07,16:00,0.144,0.129,0.206,0.197,0.202,0.114,0.073,south-southeast,0.8,No
2024/06/07,16:10,0.143,0.128,0.205,0.196,0.202,0.113,0.073,south-southeast,1.8,No
2024/06/07,16:20,0.145,0.129,0.209,0.195,0.205,0.113,0.073,east-southeast,0.9,No
2024/06/07,16:30,0.145,0.129,0.207,0.195,0.204,0.114,0.074,south-southeast,0.9,No
2024/06/07,16:40,0.144,0.129,0.206,0.196,0.203,0.113,0.074,southeast,1.2,No
2024/06/07,16:50,0.144,0.130,0.209,0.195,0.205,0.114,0.074,southeast,2.2,No
2024/06/07,17:00,0.147,0.129,0.207,0.197,0.207,0.114,0.073,south-southeast,2.8,No
2024/06/07,17:10,0.145,0.129,0.209,0.197,0.205,0.113,0.074,southeast,3.3,No
2024/06/07,17:20,0.145,0.128,0.209,0.195,0.204,0.114,0.073,southeast,2.8,No
2024/06/07,17:30,0.145,0.129,0.207,0.198,0.207,0.114,0.074,southeast,2.2,No
2024/06/07,17:40,0.145,0.128,0.209,0.194,0.204,0.113,0.072,southeast,2.3,No
2024/06/07,17:50,0.144,0.129,0.208,0.196,0.205,0.114,0.073,south-southeast,2.7,No
2024/06/07,18:00,0.146,0.129,0.208,0.197,0.205,0.114,0.073,south,2.4,No
2024/06/07,18:10,0.144,0.128,0.207,0.195,0.204,0.112,0.072,south-southeast,2.9,No
2024/06/07,18:20,0.146,0.128,0.209,0.197,0.207,0.114,0.074,south,3.6,No
2024/06/07,18:30,0.145,0.130,0.208,0.196,0.205,0.114,0.073,south,3.7,No
2024/06/07,18:40,0.144,0.128,0.207,0.197,0.204,0.114,0.073,south-southeast,4.0,No
2024/06/07,18:50,0.146,0.130,0.209,0.197,0.205,0.114,0.074,south-southeast,3.9,No
2024/06/07,19:00,0.144,0.129,0.208,0.196,0.204,0.113,0.074,south,4.0,Yes
2024/06/07,19:10,0.146,0.130,0.208,0.196,0.206,0.114,0.073,south,4.2,No
2024/06/07,19:20,0.144,0.128,0.208,0.195,0.204,0.113,0.073,south,4.2,No
2024/06/07,19:30,0.145,0.129,0.209,0.196,0.205,0.114,0.074,south,4.6,No
2024/06/07,19:40,0.144,0.127,0.207,0.196,0.206,0.113,0.073,south,3.9,No
2024/06/07,19:50,0.145,0.130,0.210,0.196,0.205,0.114,0.073,south,4.6,No
2024/06/07,20:00,0.145,0.129,0.207,0.195,0.205,0.114,0.073,south,5.5,No
2024/06/07,20:10,0.145,0.129,0.208,0.197,0.204,0.114,0.074,south,5.9,No
2024/06/07,20:20,0.146,0.128,0.207,0.195,0.205,0.113,0.074,south,5.0,No
2024/06/07,20:30,0.144,0.129,0.209,0.196,0.203,0.114,0.075,south,5.2,No
2024/06/07,20:40,0.146,0.129,0.207,0.197,0.205,0.114,0.074,south,4.7,No
2024/06/07,20:50,0.145,0.130,0.209,0.195,0.204,0.114,0.074,south,4.0,No
2024/06/07,21:00,0.146,0.128,0.207,0.196,0.205,0.114,0.073,south,4.3,No
2024/06/07,21:10,0.145,0.129,0.208,0.195,0.206,0.114,0.074,south,4.6,No
2024/06/07,21:20,0.146,0.129,0.208,0.196,0.205,0.114,0.073,south,4.3,No
2024/06/07,21:30,0.145,0.129,0.209,0.196,0.205,0.113,0.074,south-southwest,4.8,No
2024/06/07,21:40,0.146,0.128,0.207,0.197,0.204,0.114,0.074,south,5.3,No
2024/06/07,21:50,0.145,0.129,0.208,0.196,0.206,0.113,0.074,south,5.0,No
2024/06/07,22:00,0.146,0.129,0.209,0.196,0.205,0.114,0.074,south,4.9,Yes
2024/06/07,22:10,0.145,0.129,0.209,0.195,0.204,0.114,0.074,south,4.7,No
2024/06/07,22:20,0.146,0.130,0.209,0.198,0.205,0.113,0.074,south-southwest,4.8,No
2024/06/07,22:30,0.146,0.128,0.209,0.196,0.206,0.114,0.074,south,4.6,Yes
2024/06/07,22:40,0.146,0.130,0.210,0.195,0.205,0.113,0.073,south,4.8,No
2024/06/07,22:50,0.145,0.128,0.208,0.196,0.206,0.114,0.074,south,3.8,No
2024/06/07,23:00,0.146,0.129,0.210,0.197,0.204,0.114,0.074,south-southwest,4.2,No
2024/06/07,23:10,0.145,0.129,0.208,0.197,0.207,0.114,0.074,south,3.7,No
2024/06/07,23:20,0.146,0.129,0.209,0.196,0.204,0.113,0.075,south,4.2,No
2024/06/07,23:30,0.145,0.129,0.209,0.196,0.206,0.114,0.074,south,4.1,Yes
2024/06/07,23:40,0.146,0.129,0.209,0.195,0.204,0.114,0.075,south,3.6,No
2024/06/07,23:50,0.146,0.129,0.209,0.196,0.206,0.114,0.074,south,3.4,No
